Fort Campbell, KY

4:34 AM CDT on April 26, 2017 (GMT -0500)
Campbell Army Air Field

Weather History for KHOP - December, 2013

Change the Weather History Date:

Friday, December 13, 2013

  Actual Average Record
Temperature  
Mean Temperature 32 °F -  
Max Temperature 43 °F 47 °F 72 °F (2015)
Min Temperature 22 °F 29 °F 9 °F (2010)
Degree Days  
Heating Degree Days 32    
Moisture  
Dew Point 22 °F    
Average Humidity 58    
Maximum Humidity 81    
Minimum Humidity 33    
Precipitation  
Precipitation 0.04 in - - ()
Sea Level Pressure  
Sea Level Pressure 30.20 in    
Wind  
Wind Speed 5 mph (SE)    
Max Wind Speed 10 mph    
Max Gust Speed -    
Visibility 10 miles    
Events Rain    
Averages and records for this station are not official NWS values.
T = Trace of Precipitation, MM = Missing Value Source: NWS Daily Summary

Daily Weather History Graph

Daily Weather History Graph

Search for Another Location

Airport or City:

Trip Planner

Search our weather history database for the weather conditions in past years. The results will help you decide how hot, cold, wet, or windy it might be!

Date:

Astronomy

Dec. 13, 2013 Rise Set
Actual Time 6:53 AM CST 4:34 PM CST
Civil Twilight 6:25 AM CST 5:03 PM CST
Nautical Twilight 5:52 AM CST 5:35 PM CST
Astronomical Twilight 5:21 AM CST 6:07 PM CST
Moon 2:13 PM CST (12/13) 3:20 AM CST (12/13)
Length of Visible Light 10h 38m
Length of Day
9h 40m
Waxing Gibbous, 88% of the Moon is Illuminated
Dec 13
Waxing Gibbous
Dec 17
Full
Dec 25
Last Quarter
Jan 1
New
Jan 7
First Quarter

Hourly Weather History & Observations

Time (CST) Temp. Windchill Dew Point Humidity Pressure Visibility Wind Dir Wind Speed Gust Speed Precip Events Conditions
12:58 AM 24.3 °F 19.9 °F 14.2 °F 65% 30.40 in 10.0 mi South 3.5 mph - N/A   Clear
1:58 AM 25.9 °F 21.7 °F 14.0 °F 61% 30.38 in 10.0 mi SSE 3.5 mph - N/A   Clear
2:58 AM 23.2 °F - 14.9 °F 71% 30.37 in 10.0 mi ESE 2.3 mph - N/A   Clear
3:58 AM 23.2 °F 17.2 °F 15.4 °F 72% 30.35 in 10.0 mi SSE 4.6 mph - N/A   Clear
4:58 AM 22.6 °F - 15.8 °F 75% 30.34 in 10.0 mi Variable 2.3 mph - N/A   Clear
5:58 AM 23.0 °F 18.4 °F 15.8 °F 74% 30.35 in 10.0 mi SSE 3.5 mph - N/A   Clear
6:58 AM 24.3 °F 18.4 °F 14.2 °F 65% 30.35 in 10.0 mi South 4.6 mph - N/A   Clear
7:58 AM 26.8 °F 22.8 °F 15.8 °F 63% 30.34 in 10.0 mi SSE 3.5 mph - N/A   Clear
8:58 AM 35.8 °F 30.9 °F 17.1 °F 47% 30.33 in 10.0 mi SSW 5.8 mph - N/A   Clear
9:58 AM 37.8 °F 33.3 °F 18.5 °F 46% 30.32 in 10.0 mi South 5.8 mph - N/A   Scattered Clouds
10:58 AM 40.8 °F 36.9 °F 16.7 °F 38% 30.30 in 10.0 mi South 5.8 mph - N/A   Mostly Cloudy
11:58 AM 43.5 °F 40.1 °F 17.2 °F 35% 30.26 in 10.0 mi SSE 5.8 mph - N/A   Overcast
12:58 PM 43.9 °F 40.5 °F 16.5 °F 33% 30.22 in 10.0 mi South 5.8 mph - N/A   Scattered Clouds
1:58 PM 43.2 °F 39.0 °F 21.2 °F 42% 30.19 in 10.0 mi ESE 6.9 mph - N/A   Clear
2:58 PM 42.3 °F 37.9 °F 21.6 °F 44% 30.16 in 10.0 mi ESE 6.9 mph - N/A   Clear
3:03 PM 42.8 °F 38.6 °F 21.2 °F 42% 30.14 in 10.0 mi ESE 6.9 mph - N/A   Light Drizzle
3:15 PM 42.8 °F 41.1 °F 21.2 °F 42% 30.15 in 10.0 mi SSE 3.5 mph - N/A   Mostly Cloudy
3:58 PM 42.1 °F 38.4 °F 21.2 °F 43% 30.17 in 10.0 mi ESE 5.8 mph - 0.00 in   Mostly Cloudy
4:58 PM 41.2 °F - 21.6 °F 46% 30.17 in 10.0 mi ESE 2.3 mph - N/A   Overcast
5:58 PM 39.7 °F 34.9 °F 22.8 °F 51% 30.13 in 10.0 mi East 6.9 mph - N/A   Partly Cloudy
6:58 PM 39.0 °F 34.0 °F 23.4 °F 53% 30.12 in 10.0 mi East 6.9 mph - N/A   Clear
7:05 PM 39.2 °F 32.5 °F 23.0 °F 52% 30.10 in 10.0 mi East 10.4 mph - N/A   Light Drizzle
7:27 PM 37.4 °F 31.4 °F 26.6 °F 65% 30.08 in 10.0 mi East 8.1 mph - N/A   Partly Cloudy
7:58 PM 38.5 °F 35.0 °F 25.2 °F 59% 30.12 in 10.0 mi SE 4.6 mph - 0.00 in   Partly Cloudy
8:02 PM 39.2 °F 37.0 °F 24.8 °F 56% 30.11 in 10.0 mi SE 3.5 mph - N/A   Light Drizzle
8:39 PM 37.4 °F 34.9 °F 28.4 °F 70% 30.12 in 10.0 mi East 3.5 mph - N/A   Scattered Clouds
8:58 PM 37.4 °F - 29.3 °F 73% 30.14 in 10.0 mi South 2.3 mph - 0.00 in   Partly Cloudy
9:16 PM 39.2 °F 35.9 °F 26.6 °F 61% 30.11 in 10.0 mi East 4.6 mph - N/A   Light Drizzle
9:26 PM 37.4 °F 32.8 °F 30.2 °F 75% 30.10 in 10.0 mi East 5.8 mph - N/A   Scattered Clouds
9:58 PM 37.4 °F 30.3 °F 28.8 °F 71% 30.08 in 10.0 mi East 10.4 mph - 0.00 in   Scattered Clouds
10:35 PM 37.4 °F 30.8 °F 28.4 °F 70% 30.04 in 10.0 mi East 9.2 mph - N/A   Light Drizzle
10:58 PM 38.5 °F 33.4 °F 29.3 °F 70% 30.04 in 10.0 mi ESE 6.9 mph - 0.00 in   Light Drizzle
11:58 PM 38.3 °F 32.5 °F 33.1 °F 81% 30.00 in 10.0 mi SE 8.1 mph - 0.04 in Rain Light Rain